Location: Home
(42.5358°N, 72.7383°W)
Time: 18:38:50
(UTC-05:00)

A-11 Canister half - Pass Details

Date: 09 December 2021
Orbit: 1524 x 1684 km, 47.3° (Epoch: 23 January)

Event Time Altitude Azimuth Distance (km) Brightness Sun altitude
Rises 00:11:33 0° 237° (WSW) 4,907 - -69.4°
Reaches altitude 10° 00:14:41 10° 237° (WSW) 3,931 - -69.2°
Maximum altitude 00:24:50 82° 152° (SSE) 1,700 - -68.5°
Drops below altitude 10° 00:34:59 10° 66° (ENE) 3,927 - -67.6°
Exits shadow 00:36:16 - 66° (ENE) 4,326 11.6 -67.4°
Sets 00:38:07 0° 66° (ENE) 4,902 11.9 -67.2°
